Showing default

QUETZSAT 1, 37826

Orbit data source: Space-Track

QUETZSAT 1, 37826 is a payload satellite owned by SES Sat. Leasing (MX) in GEO that was launched on Thu, 29 Sep 2011 UTC via a PROTON-M/BRIZ-M launch vehicle from the Tyuratam Missile And Space Complex (TTMTR). Payload-class satellites include a variety of spacecraft equipped with specific instruments for various scientific and technological missions. These include communications satellites like Starlink; space stations such as the ISS; scientific satellites like the Hubble; Earth observation satellites from companies like Planet Labs, Umbra, and HawkEye 360; GPS; miniature CubeSats for education and research; and military/defense satellites.

Loading next visibility...
Identifier
37826, 2011-054A
Orbit
GEO
Last TLE update
2 days ago
Origin
Manufacturer
SS/Loral
Mission
Operational Commercial Communications
Bus & Motor
SSL-1300, R-4D-15-300?
Mass
5,514 kg wet, 2,472 kg dry
Launch date (UTC)
2011-09-29 (14 years ago)
Launch vehicle
PROTON-M/BRIZ-M
Launch site
Tyuratam Missile And Space Complex (TTMTR)
Object type
Payload
Rocket body
Debris
Shape & HBR
Box + 2 Pan, 26.7 m
Radar Cross Section
28.987 m², Large (>1 m²)

Expand to show TLE details & history

TLE from 2 days ago
0 QUETZSAT 1
1 37826U 11054A   25118.87110082 -.00000241  00000-0  00000-0 0  9999
2 37826   0.0187 346.5383 0002588  58.1398  49.0076  1.00270603 45726
Epoch: 2025-04-28T20:54Z
Definitive object data (Epoch: 2025-04-28T20:54:23.11Z)
Latitude
0.007°
Longitude
-76.97182°
Altitude
35,779.23 km
Speed
3.075 km/s
True Right ascension
06h 14m 48s
True Declination
0° 00' 25"
Sunlit
Object was in daylight at TLE epoch
Visualization TLE readout
Latitude
-0.00281°
Longitude
127.18391°
Altitude
35,789.722 km
Speed
3.074 km/s
Apparent Right ascension
20h 05m 23s
Apparent Declination
-6° 07' 52"
Sunlit
Object is in daylight
Visualization observer readout
Local Sidereal Time
17:59:04
Azimuth
140.221° SSE
Elevation
35.53°
Doppler factor
1
Orbital elements
Apogee altitude
35,798.909 km
Perigee altitude
35,777.084 km
Semi-major axis
42,166.134 km
Eccentricity
0.0002588
Inclination
0.0187°
RAAN
346.5383°
Arg. of periapsis
58.1398°
True anomaly
49.02999°
Mean anomaly
49.0076°
Eccentric anomaly
49.01879°
Mean motion
0.25067 °/min
BSTAR
Unknown
Orbital period
1436.17 mins
Loading historical data...
37826 neighbors
Loading maneuver chart data...
Loading SW <> Apogee altitude chart data...
Loading historical data...
Loading historical data...
Loading historical data...
Loading historical data...
Loading historical data...
Loading historical data...
Loading historical data...
Other satellites on launch #54 in the year 2011 (2011-09-29 UTC)

QUETZSAT 1 Visibility forecast

Observer location: undefined°, undefined°

Span
Click to sort rows by Start time (UTC) header in descending order
Start Az.
Max El. time (UTC)
Max El. Az.
Max El.
End time (UTC)
End Az.
1440 mins2025-04-30 10:25:03.718Z140.234° SSE2025-04-30 15:23:03.718Z140.204° SSE30.163°2025-05-01 10:25:03.718Z140.238° SSE
|